Location: Newark
(43.0000°N, 1.6781°W)
Time: 16:13:21
(UTC+00:00)

Vanguard 2 - All Passes

Search period start: 24 September 2022 00:00
Search period end: 04 October 2022 00:00
Orbit: 552 x 2935 km, 32.9° (Epoch: 24 September)

Date Brightness Start Highest point End Pass type
(mag) Time Alt. Az. Time Alt. Az. Time Alt. Az.
24 Sep - 12:35:44 10° SSE 12:44:06 18° SE 12:53:40 10° E daylight
24 Sep - 14:39:20 10° SW 14:53:23 42° SSE 15:09:11 10° E daylight
24 Sep - 16:48:02 10° WSW 17:04:45 58° S 17:20:38 10° E daylight
24 Sep - 18:59:25 10° W 19:16:30 55° SSW 19:30:00 10° ESE visible
24 Sep - 21:12:49 10° W 21:26:29 32° SW 21:36:37 10° SSE visible
25 Sep - 12:50:32 10° S 13:00:35 24° SE 13:12:35 10° E daylight
25 Sep - 14:55:49 10° SW 15:10:18 47° SSE 15:26:41 10° E daylight
25 Sep - 17:05:07 10° WSW 17:21:57 60° S 17:37:49 10° ESE daylight
25 Sep - 19:16:47 10° W 19:33:34 51° SSW 19:46:49 10° SE visible
25 Sep - 21:30:48 10° W 21:43:04 26° SW 21:52:32 10° S visible
26 Sep - 13:06:04 10° SSW 13:17:09 30° SE 13:30:50 10° E daylight
26 Sep - 15:12:31 10° SW 15:27:19 52° SSE 15:44:05 10° E daylight
26 Sep - 17:22:18 10° WSW 17:39:11 60° S 17:54:57 10° ESE daylight
26 Sep - 19:34:14 10° W 19:50:31 45° SSW 20:03:30 10° SE visible
26 Sep - 21:49:14 10° W 21:59:34 21° SW 22:07:55 10° S visible
27 Sep - 11:22:18 10° SE 11:25:40 11° SE 11:29:18 10° ESE daylight
27 Sep - 13:22:03 10° SSW 13:33:49 36° SE 13:48:41 10° E daylight
27 Sep - 15:29:23 10° WSW 15:44:26 56° SSE 16:01:24 10° E daylight
27 Sep - 17:39:32 10° W 17:56:22 58° S 18:12:00 10° ESE daylight
27 Sep - 19:51:47 10° W 20:07:22 40° SSW 20:19:56 10° SSE visible
27 Sep - 22:08:35 10° WSW 22:15:58 15° SW 22:22:22 10° SSW visible
28 Sep - 11:35:10 10° SSE 11:42:01 17° SE 11:50:15 10° E daylight
28 Sep - 13:38:22 10° SW 13:50:35 42° SSE 14:06:20 10° E daylight
28 Sep - 15:46:22 10° WSW 16:01:36 59° S 16:18:41 10° E daylight
28 Sep - 17:56:50 10° W 18:13:31 55° SSW 18:28:56 10° ESE visible
28 Sep - 20:09:30 10° W 20:24:07 34° SW 20:36:08 10° SSE visible
29 Sep - 11:50:04 10° S 11:58:27 22° SE 12:09:10 10° E daylight
29 Sep - 13:54:55 10° SW 14:07:28 47° SSE 14:23:51 10° E daylight
29 Sep - 16:03:27 10° WSW 16:18:48 60° S 16:35:55 10° ESE daylight
29 Sep - 18:14:10 10° W 18:30:36 50° SSW 18:45:44 10° SE visible
29 Sep - 20:27:30 10° W 20:40:45 27° SW 20:51:56 10° S visible
30 Sep - 12:05:43 10° SSW 12:14:58 28° SE 12:27:23 10° E daylight
30 Sep - 14:11:40 10° SW 14:24:28 52° SSE 14:41:16 10° E daylight
30 Sep - 16:20:36 10° WSW 16:36:01 59° S 16:53:03 10° ESE daylight
30 Sep - 18:31:36 10° W 18:47:36 45° SSW 19:02:20 10° SE visible
30 Sep - 20:45:57 10° W 20:57:19 21° SW 21:07:11 10° S visible
01 Oct - 12:21:47 10° SSW 12:31:35 34° SE 12:45:15 10° E daylight
01 Oct - 14:28:32 10° WSW 14:41:32 56° SSE 14:58:37 10° E daylight
01 Oct - 16:37:48 10° W 16:53:12 57° S 17:10:06 10° ESE daylight
01 Oct - 18:49:08 10° W 19:04:30 39° SSW 19:18:43 10° SSE visible
01 Oct - 21:05:19 10° WSW 21:13:48 16° SW 21:21:28 10° SSW visible
02 Oct - 10:35:32 10° SSE 10:40:29 14° SE 10:46:27 10° ESE daylight
02 Oct - 12:38:10 10° SW 12:48:20 40° SSE 13:02:54 10° E daylight
02 Oct - 14:45:31 10° WSW 14:58:41 58° S 15:15:55 10° ESE daylight
02 Oct - 16:55:04 10° W 17:10:22 53° SSW 17:27:01 10° SE daylight
02 Oct - 19:06:52 10° W 19:21:19 33° SW 19:34:47 10° SSE visible
02 Oct - 21:28:26 10° WSW 21:30:14 10° SW 21:32:00 10° SW visible
03 Oct - 10:50:22 10° S 10:56:54 20° SE 11:05:30 10° E daylight
03 Oct - 12:54:47 10° SW 13:05:12 46° SSE 13:20:25 10° E daylight
03 Oct - 15:02:36 10° WSW 15:15:53 58° S 15:33:10 10° ESE daylight
03 Oct - 17:12:23 10° W 17:27:29 49° SSW 17:43:46 10° SE daylight
03 Oct - 19:24:53 10° W 19:38:02 27° SW 19:50:26 10° S visible
